Simultaneous Nadir Overpasses (SNOs) Predictions

Prediction of SNOs between LANDSAT-8 and NOAA-19 Satellite Orbit:

Table of predicted SNOs for the next 14.0 days since TLE Epoch: 4/13/2024
Index Date (LANDSAT-8) Time (LANDSAT-8) Lat,Lon (LANDSAT-8) SZA (LANDSAT-8 ) Date (NOAA-19) Time (NOAA-19) Lat,Lon (NOAA-19) SZA (NOAA-19 ) Distance(km) Time Diff (sec)
1 04/13/2024 19:28:08 80.75, -77.55 72.94 04/13/2024 19:27:27 80.75, -77.64 72.91 1.54 41
2 04/13/2024 20:17:34 -80.78, 90.37 107.03 04/13/2024 20:18:22 -80.78, 90.41 107.01 0.80 48
3 04/16/2024 01:51:16 80.75,-173.41 72.13 04/16/2024 01:50:28 80.75,-173.50 72.11 1.67 48
4 04/16/2024 02:40:42 -80.77, -5.46 107.83 04/16/2024 02:41:24 -80.77, -5.59 107.83 2.31 42
5 04/18/2024 08:14:25 80.73, 90.62 71.33 04/18/2024 08:13:30 80.74, 90.57 71.31 1.05 55
6 04/18/2024 09:03:51 -80.76,-101.41 108.64 04/18/2024 09:04:26 -80.77,-101.29 108.60 2.39 35
7 04/20/2024 14:37:33 80.74, -5.13 70.57 04/20/2024 14:36:31 80.74, -5.06 70.55 1.32 62
8 04/20/2024 15:26:59 -80.76, 162.85 109.39 04/20/2024 15:27:28 -80.77, 162.94 109.37 1.61 29
9 04/22/2024 21:00:41 80.73,-101.01 69.81 04/22/2024 20:59:33 80.73,-101.13 69.77 2.16 68
10 04/22/2024 21:50:07 -80.76, 66.99 110.15 04/22/2024 21:50:30 -80.76, 67.10 110.13 2.03 23
11 04/25/2024 03:24:08 80.11, 157.04 68.00 04/25/2024 03:22:55 80.35, 155.84 68.09 35.49 73



Historial Predications of SNOs between LANDSAT-8 and NOAA-19
